Stündliche Wetter Warwickshire

Heute, 20 Oktober, Dienstag

Zeit Temperatur Niederschläge Wind Luftdruck Luftfeuchtigkeit
00:00 +10°C° 0 mm 6 m/S 744 mmHg 73%
01:00 +10°C° 0.2 mm 7 m/S 743 mmHg 79%
02:00 +11°C° 0.2 mm 7 m/S 742 mmHg 85%
03:00 +11°C° 0.2 mm 7 m/S 742 mmHg 91%
04:00 +11°C° 0 mm 7 m/S 741 mmHg 91%
05:00 +12°C° 0 mm 7 m/S 741 mmHg 91%
06:00 +13°C° 0 mm 6 m/S 741 mmHg 91%
07:00 +14°C° 0 mm 6 m/S 741 mmHg 89%
08:00 +14°C° 0 mm 7 m/S 741 mmHg 87%
09:00 +15°C° 0 mm 7 m/S 741 mmHg 86%
10:00 +15°C° 0.1 mm 7 m/S 741 mmHg 81%
11:00 +16°C° 0.1 mm 8 m/S 741 mmHg 76%
12:00 +16°C° 0 mm 7 m/S 741 mmHg 72%
13:00 +16°C° 0.2 mm 7 m/S 741 mmHg 74%
14:00 +16°C° 0.2 mm 7 m/S 741 mmHg 76%
15:00 +15°C° 0.2 mm 7 m/S 741 mmHg 77%
16:00 +15°C° 0.1 mm 6 m/S 741 mmHg 80%
17:00 +14°C° 0.1 mm 5 m/S 741 mmHg 84%
18:00 +13°C° 0.1 mm 5 m/S 741 mmHg 87%
19:00 +13°C° 0 mm 4 m/S 741 mmHg 87%
20:00 +13°C° 0 mm 4 m/S 741 mmHg 87%
21:00 +13°C° 0 mm 4 m/S 741 mmHg 87%
22:00 +13°C° 0 mm 4 m/S 741 mmHg 89%
23:00 +13°C° 0 mm 4 m/S 741 mmHg 91%

Morgen, 21 Oktober, Mittwoch

Zeit Temperatur Niederschläge Wind Luftdruck Luftfeuchtigkeit
00:00 +13°C° 0 mm 4 m/S 740 mmHg 92%
01:00 +13°C° 0.1 mm 4 m/S 740 mmHg 94%
02:00 +13°C° 0.1 mm 4 m/S 739 mmHg 95%
03:00 +13°C° 0.1 mm 4 m/S 739 mmHg 96%
04:00 +13°C° 0.4 mm 3 m/S 738 mmHg 96%
05:00 +13°C° 0.4 mm 3 m/S 738 mmHg 97%
06:00 +14°C° 0.4 mm 2 m/S 737 mmHg 97%
07:00 +14°C° 1 mm 2 m/S 737 mmHg 97%
08:00 +13°C° 1 mm 2 m/S 737 mmHg 97%
09:00 +13°C° 1 mm 1 m/S 737 mmHg 96%
10:00 +14°C° 0.1 mm 2 m/S 737 mmHg 92%
11:00 +15°C° 0.1 mm 2 m/S 738 mmHg 88%
12:00 +14°C° 0.1 mm 3 m/S 739 mmHg 85%
13:00 +15°C° 0.1 mm 4 m/S 739 mmHg 84%
14:00 +15°C° 0.1 mm 5 m/S 740 mmHg 83%
15:00 +15°C° 0.1 mm 5 m/S 740 mmHg 82%
16:00 +14°C° 0.4 mm 5 m/S 740 mmHg 86%
17:00 +14°C° 0.4 mm 5 m/S 741 mmHg 89%
18:00 +13°C° 0.4 mm 5 m/S 741 mmHg 93%
19:00 +13°C° 0.2 mm 5 m/S 741 mmHg 92%
20:00 +13°C° 0.2 mm 6 m/S 742 mmHg 91%
21:00 +12°C° 0.2 mm 7 m/S 742 mmHg 90%
22:00 +11°C° 0 mm 7 m/S 743 mmHg 90%
23:00 +11°C° 0 mm 6 m/S 743 mmHg 90%

übermorgen, 22 Oktober, Donnerstag

Zeit Temperatur Niederschläge Wind Luftdruck Luftfeuchtigkeit
00:00 +10°C° 0 mm 6 m/S 744 mmHg 90%
01:00 +10°C° 0.1 mm 6 m/S 744 mmHg 90%
02:00 +10°C° 0.1 mm 6 m/S 744 mmHg 90%
03:00 +9°C° 0.1 mm 6 m/S 745 mmHg 90%
04:00 +9°C° 0 mm 5 m/S 745 mmHg 91%
05:00 +9°C° 0 mm 5 m/S 745 mmHg 92%
06:00 +8°C° 0 mm 4 m/S 745 mmHg 93%
07:00 +9°C° 0.3 mm 5 m/S 746 mmHg 91%
08:00 +10°C° 0.3 mm 5 m/S 746 mmHg 89%
09:00 +10°C° 0.3 mm 5 m/S 746 mmHg 88%
10:00 +12°C° 0.2 mm 5 m/S 747 mmHg 85%
11:00 +12°C° 0.2 mm 5 m/S 747 mmHg 81%
12:00 +13°C° 0.2 mm 5 m/S 747 mmHg 78%
13:00 +13°C° 0.2 mm 5 m/S 747 mmHg 77%
14:00 +13°C° 0.2 mm 4 m/S 747 mmHg 76%
15:00 +13°C° 0.2 mm 4 m/S 747 mmHg 76%
16:00 +12°C° 0.1 mm 4 m/S 747 mmHg 80%
17:00 +11°C° 0.1 mm 3 m/S 748 mmHg 84%
18:00 +9°C° 0.1 mm 3 m/S 748 mmHg 88%
19:00 +9°C° 0 mm 3 m/S 748 mmHg 88%
20:00 +8°C° 0 mm 3 m/S 749 mmHg 88%
21:00 +7°C° 0 mm 3 m/S 749 mmHg 88%
22:00 +7°C° 0 mm 3 m/S 749 mmHg 88%
23:00 +6°C° 0 mm 2 m/S 749 mmHg 89%

23 Oktober, Freitag

Zeit Temperatur Niederschläge Wind Luftdruck Luftfeuchtigkeit
00:00 +5°C° 0 mm 2 m/S 749 mmHg 89%
01:00 +5°C° 0 mm 2 m/S 749 mmHg 89%
02:00 +5°C° 0 mm 2 m/S 749 mmHg 89%
03:00 +5°C° 0 mm 2 m/S 749 mmHg 88%
04:00 +5°C° 0 mm 2 m/S 749 mmHg 89%
05:00 +5°C° 0 mm 2 m/S 749 mmHg 90%
06:00 +5°C° 0 mm 2 m/S 748 mmHg 91%
07:00 +5°C° 0 mm 3 m/S 748 mmHg 89%
08:00 +7°C° 0 mm 3 m/S 748 mmHg 87%
09:00 +7°C° 0 mm 4 m/S 747 mmHg 85%
10:00 +7°C° 0 mm 5 m/S 747 mmHg 84%
11:00 +8°C° 0 mm 5 m/S 747 mmHg 83%
12:00 +9°C° 0 mm 6 m/S 747 mmHg 82%
13:00 +9°C° 0.1 mm 6 m/S 747 mmHg 80%
14:00 +9°C° 0.1 mm 6 m/S 747 mmHg 77%
15:00 +9°C° 0.1 mm 6 m/S 748 mmHg 75%
16:00 +8°C° 0 mm 5 m/S 748 mmHg 77%
17:00 +7°C° 0 mm 5 m/S 748 mmHg 78%
18:00 +6°C° 0 mm 4 m/S 749 mmHg 79%
19:00 +6°C° 0 mm 4 m/S 749 mmHg 81%
20:00 +5°C° 0 mm 4 m/S 750 mmHg 82%
21:00 +5°C° 0 mm 4 m/S 751 mmHg 84%
22:00 +4°C° 0 mm 4 m/S 751 mmHg 85%
23:00 +4°C° 0 mm 4 m/S 751 mmHg 86%

24 Oktober, Samstag

Zeit Temperatur Niederschläge Wind Luftdruck Luftfeuchtigkeit
00:00 +4°C° 0 mm 4 m/S 751 mmHg 87%
01:00 +5°C° 0 mm 4 m/S 751 mmHg 86%
02:00 +5°C° 0 mm 4 m/S 751 mmHg 86%
03:00 +6°C° 0 mm 5 m/S 751 mmHg 86%
04:00 +6°C° 0 mm 5 m/S 750 mmHg 85%
05:00 +6°C° 0 mm 5 m/S 750 mmHg 84%
06:00 +5°C° 0 mm 6 m/S 750 mmHg 84%
07:00 +7°C° 0 mm 6 m/S 749 mmHg 83%
08:00 +8°C° 0 mm 7 m/S 749 mmHg 82%
09:00 +9°C° 0 mm 7 m/S 749 mmHg 81%
10:00 +10°C° 0 mm 8 m/S 748 mmHg 81%
11:00 +10°C° 0 mm 8 m/S 748 mmHg 81%
12:00 +11°C° 0 mm 9 m/S 747 mmHg 82%
13:00 +12°C° 0 mm 8 m/S 746 mmHg 81%
14:00 +12°C° 0 mm 8 m/S 746 mmHg 80%
15:00 +13°C° 0 mm 8 m/S 745 mmHg 80%
16:00 +13°C° 0 mm 8 m/S 744 mmHg 81%
17:00 +13°C° 0 mm 9 m/S 743 mmHg 82%
18:00 +13°C° 0 mm 9 m/S 743 mmHg 83%
19:00 +13°C° 0.1 mm 9 m/S 742 mmHg 83%
20:00 +13°C° 0.1 mm 9 m/S 742 mmHg 83%
21:00 +12°C° 0.1 mm 10 m/S 741 mmHg 83%
22:00 +12°C° 1 mm 10 m/S 741 mmHg 85%
23:00 +12°C° 1 mm 10 m/S 740 mmHg 87%

25 Oktober, Sonntag

Zeit Temperatur Niederschläge Wind Luftdruck Luftfeuchtigkeit
00:00 +12°C° 1 mm 10 m/S 740 mmHg 89%
01:00 +11°C° 1 mm 8 m/S 740 mmHg 89%
02:00 +10°C° 1 mm 6 m/S 740 mmHg 88%
03:00 +9°C° 1 mm 5 m/S 740 mmHg 87%
04:00 +9°C° 0.1 mm 5 m/S 740 mmHg 88%
05:00 +9°C° 0.1 mm 5 m/S 740 mmHg 88%
06:00 +8°C° 0.1 mm 5 m/S 740 mmHg 89%
07:00 +9°C° 0 mm 5 m/S 740 mmHg 86%
08:00 +9°C° 0 mm 5 m/S 740 mmHg 84%
09:00 +9°C° 0 mm 6 m/S 740 mmHg 81%
10:00 +10°C° 0 mm 6 m/S 740 mmHg 77%
11:00 +10°C° 0 mm 7 m/S 740 mmHg 73%
12:00 +11°C° 0 mm 8 m/S 740 mmHg 69%
13:00 +11°C° 0.2 mm 7 m/S 740 mmHg 71%
14:00 +10°C° 0.2 mm 7 m/S 740 mmHg 73%
15:00 +10°C° 0.2 mm 6 m/S 740 mmHg 74%
16:00 +9°C° 0.1 mm 5 m/S 740 mmHg 78%
17:00 +8°C° 0.1 mm 5 m/S 741 mmHg 82%
18:00 +7°C° 0.1 mm 4 m/S 741 mmHg 86%
19:00 +7°C° 0 mm 4 m/S 742 mmHg 86%
20:00 +7°C° 0 mm 5 m/S 742 mmHg 87%
21:00 +7°C° 0 mm 5 m/S 743 mmHg 87%
22:00 +6°C° 0 mm 4 m/S 743 mmHg 88%
23:00 +6°C° 0 mm 4 m/S 743 mmHg 89%

26 Oktober, Montag

Zeit Temperatur Niederschläge Wind Luftdruck Luftfeuchtigkeit
00:00 +5°C° 0 mm 3 m/S 743 mmHg 90%
01:00 +5°C° 0 mm 3 m/S 743 mmHg 90%
02:00 +6°C° 0 mm 2 m/S 743 mmHg 90%
03:00 +7°C° 0 mm 1 m/S 743 mmHg 91%
04:00 +7°C° 0 mm 1 m/S 744 mmHg 91%
05:00 +7°C° 0 mm 1 m/S 744 mmHg 91%
06:00 +7°C° 0 mm 1 m/S 745 mmHg 91%
07:00 +6°C° 0 mm 2 m/S 746 mmHg 89%
08:00 +7°C° 0 mm 2 m/S 746 mmHg 86%
09:00 +8°C° 0 mm 3 m/S 747 mmHg 84%
10:00 +9°C° 0 mm 3 m/S 747 mmHg 79%
11:00 +10°C° 0 mm 4 m/S 747 mmHg 74%
12:00 +11°C° 0 mm 4 m/S 748 mmHg 68%
13:00 +11°C° 0 mm 4 m/S 748 mmHg 70%
14:00 +11°C° 0 mm 4 m/S 748 mmHg 71%
15:00 +11°C° 0 mm 4 m/S 748 mmHg 72%
16:00 +10°C° 0 mm 4 m/S 749 mmHg 76%
17:00 +8°C° 0 mm 4 m/S 749 mmHg 80%
18:00 +7°C° 0 mm 4 m/S 749 mmHg 85%
19:00 +7°C° 0 mm 4 m/S 749 mmHg 84%
20:00 +7°C° 0 mm 5 m/S 749 mmHg 84%
21:00 +7°C° 0 mm 5 m/S 749 mmHg 83%
22:00 +8°C° 0.2 mm 6 m/S 748 mmHg 84%
23:00 +8°C° 0.2 mm 7 m/S 748 mmHg 85%
Mehr zeigen

Wir brauchen deine Erlaubnis

Meteoprog und unser Service Anbieter werden persönliche Daten aufbewahren, so wie Cookies, Geräte Bezeichnung oder ähnliche Technologien von deinem Gerät und Prozess, so wie Persönliche Daten Inhalte und Werbungen, genauso wie social Media und den Verkehr zu analysieren.

  • Aufbewahrung und/oder Zugang zu deiner Geräte Informationen.

    Cookies, Geräte Bezeichnung oder andere Informationen, können aufbewahrt oder Zugang zu deinem Gerät erhalten, für den Grund, der oben angegeben wird.

  • Personalisierte Werbung und Inhalte, Messungen, Einblick in das Publikum und Produkt Entwicklung.

    Werbungen und Inhalte können personalisiert werden, basierend auf ein Profil. Mehr Daten können besser personalisierte Werbungen und Inhalte hinzufügen. Werbung und Inhalte können gezeigt und gemessen werden. Einblicke über das Publikum, welche die Werbung gesehen haben und den Inhalt, können abgeleitet werden. So wie Daten können genutzt werden, um es zu verbessern oder die Benutzer Erfahrung zu verbessern das System und die Software.

Wenn du “Ich stimme zu” klickst, erlaubst du uns, die Cookies zu benutzen die Geräte Bezeichnung, den Web oder ähnliche Technologien zu benutzen. Deine Settings, können in deinem Gerät bei deinem Browser geändert werden.

Für den bestimmten Zweck, berechtigten Interessen beruhen darauf, mehr als auf den Inhalt. Du kannst mehr darüber in unseren Privaten und Cookie Politik lesen.